www.pogodaiklimat.ru

Погода и климат >> Архив погоды >> Беларусь >> Мозырь


ПОГОДА в Мозыре

АРХИВ ПОГОДЫ в Мозыре

Время (UTC), дата Ветер
(напр.,м/с)
 
Видим.   Явления Облачность Т
(С)
Тd
(С)
f
(%)
Тe
(С)
Тes
(С)
Комфортность P
(гПа)
Po
(гПа)
Тmin
(С)
Tmax
(С)
R
(мм)
R24
(мм)
S
(см)
00 8.12 ЮВ 3 10 км в посл. час ливневой снег 10/0
[Ac As]
-3.0 -5.7 82 -8 -8 по сезону 1011.5 987.7
03 8.12 Ю 3 7000 м дымка 10/8 210 м
[Frnb Ac As]
-3.8 -4.6 94 -9 -9 по сезону 1010.1 986.4
06 8.12 Ю 3 4000 м в посл. час переохл. осадки {морось} 10/8 150 м
[Frnb Ac As]
-4.0 -4.5 96 -10 -10 по сезону 1009.6 985.8 -4.1 0.0
09 8.12 Ю 3 3100 м в посл. час переохл. осадки {дождь, морось} 10/10 120 м
[St]
-3.0 -3.4 97 -8 -8 по сезону 1008.9 985.3
12 8.12 Ю 3 2500 м слабая переохл. морось (гололёд) {дождь} 10/10 120 м
[St]
-2.0 -2.3 98 -7 -7 по сезону 1007.5 984.0
15 8.12 ЮВ 3 3300 м слабая переохл. морось (гололёд) {дождь} 10/10 90 м
[St]
-1.6 -2.1 96 -7 -7 по сезону 1007.0 983.5
18 8.12 Ю 2 2900 м в посл. час переохл. осадки {дождь, морось} 10/10 90 м
[St]
-0.5 -0.8 98 -4 -4 по сезону 1006.7 983.2 -0.5 1
21 8.12 Ю 1 2300 м слабый дождь 10/10 60 м
[Frnb Ns]
+0.1 -0.4 96 -2 -2 по сезону 1006.7 983.3
00 9.12 штиль 0 300 м туман {дождь} ?/? +0.2 +0.2 100 -1 -1 тепло 1006.3 982.9
03 9.12 штиль 0 200 м туман ?/? +0.1 +0.1 100 -1 -1 тепло 1005.5 982.2
06 9.12 штиль 0 200 м туман ?/? +0.2 +0.2 100 -1 -1 тепло 1005.0 981.7 -0.5 3
09 9.12 Ю 1 300 м туман ?/? +0.3 +0.3 100 -2 -2 по сезону 1004.6 981.3
12 9.12 Ю 1 600 м туман ?/? +1.2 +1.2 100 -1 -1 по сезону 1003.2 980.0
15 9.12 Ю 1 200 м туман ?/? +0.6 +0.6 100 -2 -2 по сезону 1002.3 979.0
18 9.12 Ю 2 2500 м в посл. час туман 10/8 240 м
[Frnb Ac As]
+1.1 +0.6 96 -3 -3 по сезону 1001.6 978.4 +1.4
21 9.12 Ю 3 8000 м дымка 10/10 1050 м
[Sc]
+1.6 +0.5 92 -3 -3 по сезону 1001.2 978.0
00 10.12 Ю 2 8000 м дымка 10/10 700 м
[Sc]
+1.4 +0.3 92 -2 -2 по сезону 1001.3 978.1
03 10.12 Ю 2 6000 м в посл. час ливневой дождь 10/4 600 м
[Cb cap Ac As]
+1.2 +0.7 96 -2 -2 тепло 1001.3 978.1
06 10.12 Ю 2 5000 м дымка {ливн. осадки} 10/9 90 м
[Frnb Ac As]
+1.0 +0.7 98 -3 -3 по сезону 1002.0 978.8 +0.9 0.8
09 10.12 Ю 1 6000 м дымка 10/8 120 м
[Frnb Ac As]
+1.7 +1.2 96 -0 -0 тепло 1002.6 979.5
12 10.12 Ю 2 4200 м дымка {дождь} 10/6 90 м
[Frnb Ac As]
+1.9 +1.4 96 -2 -2 по сезону 1002.9 979.8
15 10.12 Ю 1 4500 м дымка 9/8 480 м
[Sc Ac As]
+1.9 +1.1 94 0 0 тепло 1004.0 980.9
18 10.12 Ю 2 5000 м дымка 10/8 630 м
[Sc Ac As]
+1.8 +1.3 96 -2 -2 по сезону 1004.2 981.1 +1.9 0.0
21 10.12 Ю 1 4000 м дымка 10/10 400 м
[Sc]
+1.6 +1.1 96 -0 -0 тепло 1004.7 981.6
00 11.12 Ю 1 2400 м дымка 10/10 300 м
[Sc]
+1.8 +1.5 98 -0 -0 тепло 1005.7 982.5
03 11.12 штиль 0 600 м туман ?/? +1.6 +1.6 100 0 0 тепло 1006.2 983.0
06 11.12 штиль 0 200 м туман ?/? +1.6 +1.6 100 0 0 тепло 1007.9 984.7 +1.5
09 11.12 СЗ 1 800 м туман ?/? +1.5 +1.5 100 -1 -1 тепло 1009.7 986.4
12 11.12 штиль 0 8000 м дымка {туман} 10/10 180 м
[St]
+1.6 +1.3 98 0 0 тепло 1010.6 987.4
15 11.12 штиль 0 1800 м в посл. час морось 10/10 60 м
[St]
+1.2 +0.9 98 -0 -0 тепло 1012.7 989.3
18 11.12 штиль 0 3200 м дымка {дождь, морось} 10/6 240 м
[Frnb Ac As]
+1.2 +0.7 96 -0 -0 тепло 1013.8 990.4 +1.7 0.6
21 11.12 штиль 0 200 м туман ?/? +1.1 +1.1 100 -0 -0 тепло 1014.7 991.3
00 12.12 штиль 0 300 м туман ?/? +0.9 +0.9 100 -1 -1 тепло 1014.8 991.4
03 12.12 штиль 0 300 м туман ?/? +0.7 +0.7 100 -1 -1 тепло 1015.0 991.6
06 12.12 С 2 300 м туман ?/? +0.4 +0.4 100 -3 -3 по сезону 1015.7 992.2 +0.3
09 12.12 С 2 1200 м дымка {туман} 10/10 60 м
[St]
+0.2 -0.1 98 -4 -4 по сезону 1015.4 991.9
12 12.12 С 3 2900 м дымка {туман} 10/10 90 м
[St]
+0.1 -0.2 98 -5 -5 по сезону 1014.9 991.4
15 12.12 С 3
{10}
8000 м слабый снег 10/6 270 м
[Frnb As op]
+0.2 -0.9 92 -5 -5 по сезону 1015.4 991.9
18 12.12 С 4
{10}
7000 м дымка {снег} 10/6 240 м
[Frnb Ac As]
+0.4 -1.0 90 -5 -5 по сезону 1014.8 991.3 +0.4 0.0
21 12.12 С 4 1700 м ливневой снег 10/8 120 м
[Cb cap Ac As]
-0.1 -0.4 98 -6 -6 по сезону 1014.6 991.1
00 13.12 С 4 2600 м слабый ливневой снег 10/10 150 м
[Cb cap]
-0.1 -0.4 98 -6 -6 по сезону 1014.4 990.9
03 13.12 С 3 3900 м слабый ливневой снег 10/10 120 м
[Cb cap]
-0.4 -1.0 96 -5 -5 по сезону 1014.5 990.9
06 13.12 С 3 4000 м слабый ливневой снег 10/10 120 м
[Cb cap]
-0.8 -1.5 95 -6 -6 по сезону 1014.9 991.3 -0.9 7 6
09 13.12 С 3 5000 м слабый снег {ливн. осадки} 10/10 150 м
[Frnb Ns]
-1.0 -1.7 95 -6 -6 по сезону 1015.6 992.0
12 13.12 С 2 4000 м слабый ливневой снег 10/8 270 м
[Cb cap Ac As]
-0.8 -1.5 95 -5 -5 по сезону 1015.6 992.0
15 13.12 С 2 1600 м снег {ливн. осадки} 10/10 90 м
[Frnb Ns]
-0.8 -1.2 97 -5 -5 по сезону 1016.6 992.9
18 13.12 СВ 2 4200 м слабый снег {ливн. осадки} 10/10 300 м
[Frnb Ns]
-0.6 -1.2 96 -5 -5 по сезону 1017.7 994.0 -0.4 2
21 13.12 СВ 1 7000 м дымка {снег} 10/8 210 м
[Frnb Ac As]
-0.8 -1.5 95 -3 -3 по сезону 1019.2 995.5
00 14.12 СВ 2 1900 м дымка {снег} 10/10 90 м
[St]
-0.8 -1.2 97 -5 -5 по сезону 1020.8 997.1
03 14.12 СВ 1 6000 м дымка 10/8 90 м
[Frnb Ac As]
-1.0 -1.7 95 -3 -3 по сезону 1022.0 998.2
06 14.12 СВ 1 5000 м дымка 10/8 120 м
[Frnb Ac As]
-1.2 -1.9 95 -4 -4 по сезону 1023.3 999.4 -1.4 0.4 7
09 14.12 СВ 1 6000 м дымка 10/8 960 м
[Sc Ac As]
-1.0 -1.7 95 -3 -3 по сезону 1024.6 1000.8
12 14.12 СВ 1 8000 м дымка 8/0
[Ac und]
-0.4 -1.9 90 -3 -2 по сезону 1025.1 1001.3
15 14.12 штиль 0 6000 м дымка 10/8 570 м
[Sc Ac As]
-0.8 -2.1 91 -2 -2 по сезону 1026.4 1002.5
18 14.12 С 1 5000 м дымка 9/0
[Ac und]
-0.8 -1.8 93 -3 -3 по сезону 1027.6 1003.7 0.0
21 14.12 СВ 1 3200 м дымка 10/10 210 м
[St]
-0.8 -1.5 95 -3 -3 по сезону 1028.4 1004.5

 

Местоположение метеостанции Мозырь (Гомельская область, Беларусь): широта 52.04 долгота 29.19 высота над уровнем моря 190 м.

В архиве по умолчанию представлена погода в Мозыре за последнюю неделю. Архивные данные за месяц целиком и за предыдущие месяцы, начиная с января 2011 года, Вы можете получить, выбрав интересующий диапазон дат из раскрывающегося списка и нажав кнопку "Ввод!".


*Определитесь, кто Вы:
робот инопланетянин человек

Внимание! Время в таблицах - всемирное. Для получения местного времени необходимо прибавить поправку, которая в Мозыре равна 3 ч.

Смотрите также архив погоды в соседних городах и на ближайших метеорологических станциях:

Погода в Василевичах (Гомельская область, Беларусь) (50 км)
Погода в Октябре (Гомельская область, Беларусь) (69 км)
Погода в Брагине (Гомельская область, Беларусь) (78 км)
Погода в Овруче (Житомирская область, Украина) (85 км)
Погода в Житковичах (Гомельская область, Беларусь) (92 км)
Погода в Чернобыле (Киевская область, Украина) (111 км)
Погода в Жлобине (Гомельская область, Беларусь) (111 км)
Погода в Коростени (Житомирская область, Украина) (127 км)
Погода в Гомеле (Гомельская область, Беларусь) (127 км)
Погода в Бобруйске (Могилевская область, Беларусь) (130 км)

Пояснения к столбцам:

Ветер - указаны скорость ветра в м/с - средняя за 10 мин, порывы в срок и между сроками (в фигурных скобках) и направление, откуда дует ветер: С - северный, СВ - северо-восточный, В - восточный, ЮВ - юго-восточный, Ю - южный, ЮЗ - юго-западный, З - западный, СЗ - северо-западный.
Видимость - горизонтальная дальность видимости в метрах или километрах. При видимости от 1 до 10 км при отсутствии осадков обычно наблюдается дымка, при ухудшении видимости до 1 км и менее - туман. В сухую погоду видимость может ухудшаться дымом, пылью или мглою.
Явления - указаны атмосферные явления, наблюдавшиеся в срок или в последний час перед сроком; фигурными скобками обозначены явления, наблюдавшиеся между сроками (за 1-3 часа до срока); квадратными скобками обозначены град или гололедные отложения с указанием их диаметра в мм.
Облачность - указаны через наклонную черту общая и нижняя облачность в баллах и высота нижней границы облаков в метрах; квадратными скобками обозначены формы облаков: Ci - перистые, Cs - перисто-слоистые, Cc - перисто-кучевые, Ac - высококучевые, As - высокослоистые, Sc - слоисто-кучевые, Ns - слоисто-дождевые, Cu - кучевые, Cb - кучево-дождевые. Подробнее классификацию облаков см. в Атласе облаков (PDF).
T - Температура воздуха - температура, измеренная на высоте 2 м над землей.
Td - Температура точки росы - температура, при понижении до которой содержащийся в воздухе водяной пар достигнет насыщения.
f - Относительная влажность воздуха - влажноcть воздуха, измеренная на высоте 2 м над землей.
Te - Эффективная температура - температура, которую ощущает одетый по сезону человек в тени. Характеристика душности погоды. При расчете учитывается влияние влажности воздуха и скорости ветра на теплоощущения человека.
Tes - Эффективная температура на солнце - температура, которую ощущает человек, с поправкой на солнечный нагрев. Характеристика знойности погоды. Зависит от высоты солнца над горизонтом, облачности и скорости ветра. Ночью, в пасмурную погоду, а также при ветре 12 м/с и более поправка равна нулю.
P - Атмосферное давление - приведенное к уровню моря атмосферное давление.
Po - Атмосферное давление - измеренное на уровне метеостанции атмосферное давление.
Tmin - Минимальная температура - минимум температуры воздуха на высоте 2 м над землей.
Tmax - Максимальная температура - максимум температуры воздуха на высоте 2 м над землей.
R - Количество осадков - Количество выпавших осадков за период времени, мм. При наведении курсора мыши на число - период времени, за который выпало указанное количество осадков.
R24 - Количество осадков - Количество выпавших осадков за 24 часа, мм.
S - Снежный покров - Высота снежного покрова, см. При наведении курсора мыши на число - состояние снежного покрова и степень покрытия местности в баллах.